Location: Aciu?a
(46.2833°N, 22.4500°E)
Time: 04:32:33
(UTC+00:00)

HJ-1C - Pass Details

Date: 25 October 2021
Orbit: 423 x 433 km, 97.1° (Epoch: 30 November)

Event Time Altitude Azimuth Distance (km) Brightness Sun altitude
Exits shadow 17:18:50 60° 10° (N) 497 3.5 -20.0°
Drops below altitude 10° 17:21:37 10° 351° (N) 1,533 6.2 -20.5°
Sets 17:23:38 0° 350° (N) 2,408 7.3 -20.8°
